This is the latest recevied weather packets stored in our database for station/object KF4CQ. If no packets are shown the sender has not sent any weather packets the latest 10 day(s).
| Time | Temp. | Humidity | Pressure | Rain* | Wind** | Luminosity | Snow |
|---|---|---|---|---|---|---|---|
| 1777762517 | 21.67° C | 98% | 1011.6 hPa | 0 mm | - | 27 W/m² | - |
| 1777762215 | 21.67° C | 98% | 1011.5 hPa | 0 mm | - | 22 W/m² | - |
| 1777761911 | 21.67° C | 98% | 1011.8 hPa | 0 mm | - | 27 W/m² | - |
| 1777761608 | 21.67° C | 98% | 1011.6 hPa | 0 mm | - | 24 W/m² | - |
| 1777761306 | 21.67° C | 98% | 1011.6 hPa | 0 mm | - | 46 W/m² | - |
| 1777761004 | 21.67° C | 99% | 1011.6 hPa | 0 mm | - | 72 W/m² | - |
| 1777760701 | 21.11° C | 99% | 1011.5 hPa | 0 mm | - | 61 W/m² | - |
| 1777760396 | 21.11° C | 99% | 1011.1 hPa | 0 mm | - | 54 W/m² | - |
| 1777760093 | 21.11° C | 99% | 1011.1 hPa | 0 mm | - | 52 W/m² | - |
| 1777759790 | 21.11° C | 99% | 1011.1 hPa | 0 mm | - | 52 W/m² | - |
| 1777759485 | 21.11° C | 99% | 1010.7 hPa | 0 mm | - | 43 W/m² | - |
| 1777759183 | 21.11° C | 99% | 1010.6 hPa | 0 mm | - | 36 W/m² | - |
| 1777758880 | 21.11° C | 99% | 1010.3 hPa | 0 mm | - | 34 W/m² | - |
| 1777758577 | 21.11° C | 99% | 1010.6 hPa | 0 mm | - | 39 W/m² | - |
| 1777758273 | 21.11° C | 99% | 1010.7 hPa | 0 mm | - | 39 W/m² | - |
| 1777757971 | 21.11° C | 99% | 1010.9 hPa | 0 mm | - | 47 W/m² | - |
| 1777757667 | 21.11° C | 99% | 1011.1 hPa | 0 mm | - | 57 W/m² | - |
| 1777757366 | 21.11° C | 99% | 1011 hPa | 0 mm | - | 56 W/m² | - |
| 1777757065 | 21.11° C | 99% | 1010.5 hPa | 0 mm | - | 49 W/m² | - |
| 1777756761 | 21.11° C | 99% | 1010.7 hPa | 0 mm | - | 38 W/m² | - |
| 1777756457 | 21.11° C | 99% | 1010.7 hPa | 0 mm | - | 46 W/m² | - |
| 1777756155 | 21.11° C | 99% | 1011 hPa | 0 mm | - | 51 W/m² | - |
| 1777755852 | 21.11° C | 99% | 1010.9 hPa | 0 mm | - | 82 W/m² | - |
| 1777755549 | 20.56° C | 99% | 1010.9 hPa | 0 mm | - | 96 W/m² | - |
| 1777755245 | 21.11° C | 99% | 1010.7 hPa | 0 mm | - | 91 W/m² | - |
* Rain latest hour (hover to see other rain measurements)
** Current wind speed in m/s (hover to see current wind gust speed)